Date,TemperatureHighF,TemperatureAvgF,TemperatureLowF,DewpointHighF,DewpointAvgF,DewpointLowF,HumidityHigh,HumidityAvg,HumidityLow,PressureMaxIn,PressureMinIn,WindSpeedMaxMPH,WindSpeedAvgMPH,GustSpeedMaxMPH,PrecipitationSumIn
2013-2-1,68.0,49.6,34.5,50.6,42.2,33.0,95,78,51,30.23,30.11,10,1,13,0.01
2013-2-2,59.4,46.6,39.7,50.2,43.2,38.1,96,88,71,30.32,30.22,10,1,13,0.00
2013-2-3,61.5,48.2,38.7,49.3,43.8,37.1,96,86,61,30.26,30.14,13,1,13,0.01
2013-2-4,56.5,45.1,38.4,49.2,42.5,37.0,96,91,74,30.19,30.07,13,1,17,0.01
2013-2-5,60.4,49.4,39.9,49.0,44.1,37.5,94,83,60,30.17,30.05,19,2,23,0.00
2013-2-6,60.7,45.3,34.1,45.0,38.6,32.0,94,79,49,30.22,30.11,11,2,21,0.01
2013-2-7,56.1,46.5,37.2,46.0,39.7,33.1,95,79,44,30.17,30.00,21,2,25,0.21
2013-2-8,58.7,44.7,32.6,39.1,35.1,30.0,96,73,34,30.03,29.94,21,2,25,0.00
2013-2-9,62.9,48.8,34.4,35.8,31.6,25.4,86,54,25,30.11,30.02,15,2,19,0.00
2013-2-10,64.2,43.9,30.3,46.4,34.7,27.5,91,72,36,30.14,30.01,15,1,21,0.00
2013-2-11,68.7,48.3,34.1,39.8,34.6,29.0,89,64,24,30.24,30.10,15,2,19,0.00
2013-2-12,63.2,45.2,31.3,47.5,38.8,29.2,93,80,49,30.37,30.24,10,1,13,0.00
2013-2-13,66.5,46.7,33.3,46.5,39.1,31.3,94,77,45,30.35,30.21,13,1,19,0.00
2013-2-14,71.0,50.6,35.9,50.2,41.6,34.0,94,74,44,30.27,30.15,15,2,17,0.00
2013-2-15,73.2,52.5,35.8,48.8,41.8,33.7,93,70,38,30.28,30.20,11,1,15,0.01
2013-2-16,71.6,50.8,37.5,48.6,41.7,35.6,94,75,34,30.26,30.06,13,1,15,0.00
2013-2-17,64.7,46.5,32.9,45.9,38.3,31.4,96,76,43,30.07,29.97,13,1,15,0.00
2013-2-18,55.3,44.0,34.4,43.3,38.1,31.7,92,80,62,30.04,29.92,17,2,19,0.00
2013-2-19,49.9,41.9,32.8,43.0,35.9,30.1,94,80,51,29.97,29.74,21,2,30,0.20
2013-2-20,60.4,44.5,29.6,37.2,33.2,27.6,93,68,34,30.07,29.87,21,3,23,0.00
2013-2-21,63.5,48.4,33.4,38.1,34.4,26.6,89,63,26,30.18,30.07,15,2,21,0.00
2013-2-22,64.4,48.9,35.5,45.8,38.9,32.4,89,71,35,30.26,30.16,15,2,19,0.00
2013-2-23,60.4,49.3,39.2,43.2,34.7,27.6,93,61,30,30.28,30.16,21,3,25,0.00
2013-2-24,69.0,48.3,31.4,35.9,31.1,18.4,87,57,15,30.28,30.15,17,2,23,0.00
2013-2-25,70.0,49.0,33.9,44.2,36.3,17.8,90,67,14,30.28,30.15,21,2,21,0.00
2013-2-26,71.8,49.0,32.1,39.8,33.9,24.3,91,62,18,30.23,30.13,15,2,19,0.00
2013-2-27,69.9,50.5,32.5,45.0,37.3,29.4,91,65,28,30.37,30.22,15,1,19,0.00
2013-2-28,70.3,55.1,43.7,54.6,48.0,41.5,94,78,54,30.45,30.36,19,2,21,0.00